![]() |
EMODnet Physics ERDDAP
Easier access to scientific data |
log in|
Brought to you by EMODnet Physics |
| Dataset Title: | NDBC - Collection of dew point temperature (DEWT) TimeSeries - IN SITU MultiPointTimeSeriesObservation
|
| Institution: | NDBC (Dataset ID: TS_DEWT_NDBC) |
| Information: | Summary
| License
| FGDC
| ISO 19115
| Metadata
| Background
| Subset
| Data Access Form
| Make a graph
|
| Name | Last modified | Size | Description | |
|---|---|---|---|---|
| Parent Directory | - | - | ||
| PRUR1_TS_DEWT_012016.nc | 20-Jan-2026 17:28 | 429492 | ||
| PRUR1_TS_DEWT_012017.nc | 20-Jan-2026 17:34 | 429496 | ||
| PRUR1_TS_DEWT_012018.nc | 20-Jan-2026 17:37 | 429493 | ||
| PRUR1_TS_DEWT_012020.nc | 20-Jan-2026 17:43 | 429496 | ||
| PRUR1_TS_DEWT_012021.nc | 20-Jan-2026 17:48 | 429495 | ||
| PRUR1_TS_DEWT_012022.nc | 20-Jan-2026 17:54 | 429493 | ||
| PRUR1_TS_DEWT_012024.nc | 20-Jan-2026 18:04 | 429492 | ||
| PRUR1_TS_DEWT_022016.nc | 20-Jan-2026 17:28 | 429495 | ||
| PRUR1_TS_DEWT_022017.nc | 20-Jan-2026 17:34 | 429491 | ||
| PRUR1_TS_DEWT_022020.nc | 20-Jan-2026 17:44 | 429495 | ||
| PRUR1_TS_DEWT_022021.nc | 20-Jan-2026 17:49 | 429495 | ||
| PRUR1_TS_DEWT_022022.nc | 20-Jan-2026 17:54 | 429493 | ||
| PRUR1_TS_DEWT_022023.nc | 20-Jan-2026 17:59 | 429328 | ||
| PRUR1_TS_DEWT_022024.nc | 20-Jan-2026 18:04 | 429493 | ||
| PRUR1_TS_DEWT_032016.nc | 20-Jan-2026 17:29 | 429495 | ||
| PRUR1_TS_DEWT_032017.nc | 20-Jan-2026 17:34 | 429491 | ||
| PRUR1_TS_DEWT_032019.nc | 20-Jan-2026 17:39 | 429604 | ||
| PRUR1_TS_DEWT_032020.nc | 20-Jan-2026 17:44 | 429608 | ||
| PRUR1_TS_DEWT_032021.nc | 20-Jan-2026 17:49 | 429613 | ||
| PRUR1_TS_DEWT_032022.nc | 20-Jan-2026 17:54 | 428536 | ||
| PRUR1_TS_DEWT_032023.nc | 20-Jan-2026 18:00 | 429594 | ||
| PRUR1_TS_DEWT_032024.nc | 20-Jan-2026 18:05 | 429612 | ||
| PRUR1_TS_DEWT_042016.nc | 20-Jan-2026 17:29 | 429618 | ||
| PRUR1_TS_DEWT_042019.nc | 20-Jan-2026 17:39 | 429614 | ||
| PRUR1_TS_DEWT_042020.nc | 20-Jan-2026 17:44 | 429618 | ||
| PRUR1_TS_DEWT_042021.nc | 20-Jan-2026 17:50 | 429618 | ||
| PRUR1_TS_DEWT_042022.nc | 20-Jan-2026 17:55 | 429610 | ||
| PRUR1_TS_DEWT_042023.nc | 20-Jan-2026 18:00 | 429619 | ||
| PRUR1_TS_DEWT_042024.nc | 20-Jan-2026 18:05 | 429622 | ||
| PRUR1_TS_DEWT_052016.nc | 20-Jan-2026 17:30 | 429611 | ||
| PRUR1_TS_DEWT_052018.nc | 20-Jan-2026 17:37 | 429617 | ||
| PRUR1_TS_DEWT_052019.nc | 20-Jan-2026 17:40 | 429618 | ||
| PRUR1_TS_DEWT_052020.nc | 20-Jan-2026 17:45 | 429618 | ||
| PRUR1_TS_DEWT_052021.nc | 20-Jan-2026 17:50 | 429612 | ||
| PRUR1_TS_DEWT_052022.nc | 20-Jan-2026 17:55 | 429836 | ||
| PRUR1_TS_DEWT_052023.nc | 20-Jan-2026 18:00 | 429834 | ||
| PRUR1_TS_DEWT_052024.nc | 20-Jan-2026 18:05 | 429840 | ||
| PRUR1_TS_DEWT_062015.nc | 12-Dec-2024 17:32 | 429835 | ||
| PRUR1_TS_DEWT_062016.nc | 20-Jan-2026 17:30 | 429832 | ||
| PRUR1_TS_DEWT_062018.nc | 20-Jan-2026 17:38 | 429707 | ||
| PRUR1_TS_DEWT_062019.nc | 20-Jan-2026 17:40 | 429837 | ||
| PRUR1_TS_DEWT_062020.nc | 20-Jan-2026 17:45 | 429838 | ||
| PRUR1_TS_DEWT_062021.nc | 20-Jan-2026 17:51 | 429837 | ||
| PRUR1_TS_DEWT_062022.nc | 20-Jan-2026 17:56 | 429837 | ||
| PRUR1_TS_DEWT_062023.nc | 20-Jan-2026 18:01 | 429837 | ||
| PRUR1_TS_DEWT_062024.nc | 20-Jan-2026 18:06 | 429834 | ||
| PRUR1_TS_DEWT_072015.nc | 12-Dec-2024 17:32 | 429837 | ||
| PRUR1_TS_DEWT_072016.nc | 20-Jan-2026 17:31 | 429835 | ||
| PRUR1_TS_DEWT_072017.nc | 20-Jan-2026 17:35 | 429573 | ||
| PRUR1_TS_DEWT_072018.nc | 20-Jan-2026 17:38 | 429838 | ||
| PRUR1_TS_DEWT_072019.nc | 20-Jan-2026 17:41 | 429836 | ||
| PRUR1_TS_DEWT_072020.nc | 20-Jan-2026 17:46 | 429834 | ||
| PRUR1_TS_DEWT_072021.nc | 20-Jan-2026 17:51 | 429838 | ||
| PRUR1_TS_DEWT_072022.nc | 20-Jan-2026 17:56 | 429819 | ||
| PRUR1_TS_DEWT_082015.nc | 12-Dec-2024 17:33 | 1625671 | ||
| PRUR1_TS_DEWT_082016.nc | 20-Jan-2026 17:31 | 1475517 | ||
| PRUR1_TS_DEWT_082017.nc | 20-Jan-2026 17:35 | 1477244 | ||
| PRUR1_TS_DEWT_082018.nc | 20-Jan-2026 17:38 | 1626614 | ||
| PRUR1_TS_DEWT_082019.nc | 20-Jan-2026 17:41 | 1473034 | ||
| PRUR1_TS_DEWT_082020.nc | 20-Jan-2026 17:46 | 1468342 | ||
| PRUR1_TS_DEWT_082021.nc | 20-Jan-2026 17:51 | 1469997 | ||
| PRUR1_TS_DEWT_082022.nc | 20-Jan-2026 17:56 | 1464140 | ||
| PRUR1_TS_DEWT_092016.nc | 20-Jan-2026 17:32 | 1469834 | ||
| PRUR1_TS_DEWT_092017.nc | 20-Jan-2026 17:35 | 1149338 | ||
| PRUR1_TS_DEWT_092019.nc | 20-Jan-2026 17:41 | 1467392 | ||
| PRUR1_TS_DEWT_092020.nc | 20-Jan-2026 17:47 | 1477310 | ||
| PRUR1_TS_DEWT_092021.nc | 20-Jan-2026 17:52 | 1468081 | ||
| PRUR1_TS_DEWT_092022.nc | 20-Jan-2026 17:57 | 1459861 | ||
| PRUR1_TS_DEWT_102015.nc | 20-Jan-2026 17:27 | 1468107 | ||
| PRUR1_TS_DEWT_102016.nc | 20-Jan-2026 17:32 | 1471335 | ||
| PRUR1_TS_DEWT_102017.nc | 20-Jan-2026 17:36 | 1474138 | ||
| PRUR1_TS_DEWT_102019.nc | 20-Jan-2026 17:42 | 1462271 | ||
| PRUR1_TS_DEWT_102020.nc | 20-Jan-2026 17:47 | 1470330 | ||
| PRUR1_TS_DEWT_102021.nc | 20-Jan-2026 17:52 | 1473574 | ||
| PRUR1_TS_DEWT_102022.nc | 20-Jan-2026 17:57 | 1459730 | ||
| PRUR1_TS_DEWT_112015.nc | 20-Jan-2026 17:27 | 1163197 | ||
| PRUR1_TS_DEWT_112016.nc | 20-Jan-2026 17:33 | 1472441 | ||
| PRUR1_TS_DEWT_112017.nc | 20-Jan-2026 17:36 | 1161493 | ||
| PRUR1_TS_DEWT_112019.nc | 20-Jan-2026 17:42 | 1469726 | ||
| PRUR1_TS_DEWT_112020.nc | 20-Jan-2026 17:47 | 1161993 | ||
| PRUR1_TS_DEWT_112021.nc | 20-Jan-2026 17:53 | 1475384 | ||
| PRUR1_TS_DEWT_122015.nc | 20-Jan-2026 17:27 | 1471733 | ||
| PRUR1_TS_DEWT_122016.nc | 20-Jan-2026 17:33 | 1475985 | ||
| PRUR1_TS_DEWT_122017.nc | 20-Jan-2026 17:37 | 1463582 | ||
| PRUR1_TS_DEWT_122019.nc | 20-Jan-2026 17:43 | 1476372 | ||
| PRUR1_TS_DEWT_122020.nc | 20-Jan-2026 17:48 | 1469639 | ||
| PRUR1_TS_DEWT_122021.nc | 20-Jan-2026 17:53 | 1468632 | ||